FW1688 Davie FL US current weather conditions

sailwx.info

Wind from 127 at 6 knots gusting 14

Air temperature 23.9° C
Dewpoint 20.8° C

Last reported at 2019-Sep-20 14:00 UTC.
Time now 2019-Sep-20 14:59 UTC

Location: N 26°06' W 080°16'.
View on Google Maps.

See reports from other nearby stations

  
Tides and Currents Weather Stations Pressure Air Temp Water Temp Dewpoint Dewpoint Depression Visibility Wind Speed Wind Dir Waves Ship Positions
date/time (UTC)wind fromknots sea level pressurealtimeterstation pressurevisibilityair tempwater tempwave heightnotes
2019-Sep-20 14:00 127 6 gusting 14 23.9
2019-Sep-20 13:45 143 7 gusting 16 27.2
2019-Sep-20 13:30 076 1 gusting 16 28.3
2019-Sep-20 13:15 066 3 gusting 13 28.3
2019-Sep-20 12:47 002 5 gusting 12 27.2
2019-Sep-20 12:31 297 4 gusting 13 27.2
2019-Sep-20 12:17 085 4 gusting 9 27.2
2019-Sep-20 12:01 104 4 gusting 12 27.2
2019-Sep-20 11:46 060 1 gusting 8 26.7
2019-Sep-20 11:31 349 2 gusting 7 26.7
2019-Sep-20 11:17 045 4 gusting 8 26.7
2019-Sep-20 11:01 077 0 gusting 6 26.1
2019-Sep-20 10:47 039 1 gusting 8 26.1
2019-Sep-20 10:31 098 2 gusting 8 26.1
2019-Sep-20 10:16 085 0 gusting 5 26.1
2019-Sep-20 10:02 153 1 gusting 6 26.1
2019-Sep-20 09:46 053 1 gusting 6 26.1
2019-Sep-20 09:32 352 2 gusting 9 26.1
2019-Sep-20 09:16 055 0 gusting 8 26.1
2019-Sep-20 09:01 094 2 gusting 5 26.1
2019-Sep-20 08:46 094 1 gusting 6 26.1
2019-Sep-20 08:31 058 0 gusting 7 26.1
2019-Sep-20 08:16 065 1 gusting 7 26.1
2019-Sep-20 08:01 098 1 gusting 6 25.6
2019-Sep-20 07:45 047 1 gusting 6 25.6
2019-Sep-20 07:30 068 3 gusting 9 26.1
2019-Sep-20 07:15 089 1 gusting 9 26.1
2019-Sep-20 07:01 099 3 gusting 8 26.1
2019-Sep-20 06:45 063 2 gusting 7 26.1
2019-Sep-20 06:30 032 3 gusting 7 26.7
2019-Sep-20 06:16 152 1 gusting 7 26.1
2019-Sep-20 06:01 119 1 gusting 6 26.1
2019-Sep-20 05:46 068 0 gusting 6 25.6
2019-Sep-20 05:30 142 25.6
2019-Sep-20 05:15 131 0 gusting 5 26.1
2019-Sep-20 05:00 070 1 gusting 9 25.6
2019-Sep-20 04:45 072 2 gusting 7 26.1
2019-Sep-20 04:30 072 1 gusting 7 26.1
2019-Sep-20 04:15 122 5 gusting 11 26.1
2019-Sep-20 04:00 059 3 gusting 14 26.1
2019-Sep-20 03:45 054 3 gusting 16 26.1
2019-Sep-20 03:30 089 4 gusting 12 26.1
2019-Sep-20 03:15 081 3 gusting 7 26.7
2019-Sep-20 03:00 114 2 gusting 8 26.1
2019-Sep-20 02:45 050 1 gusting 10 26.7
2019-Sep-20 02:30 150 1 gusting 11 26.1
2019-Sep-20 02:15 068 5 gusting 13 26.7
2019-Sep-20 01:45 110 4 gusting 10 26.7
2019-Sep-20 01:31 056 2 gusting 13 26.7
2019-Sep-20 01:17 075 3 gusting 10 26.1
2019-Sep-20 01:02 047 2 gusting 7 25.6
2019-Sep-20 00:46 077 4 gusting 8 25.6
2019-Sep-20 00:31 046 6 gusting 10 26.1
2019-Sep-20 00:16 034 4 gusting 12 26.7
2019-Sep-20 00:02 059 5 gusting 12 27.2
2019-Sep-19 23:47 025 3 gusting 12 27.2
2019-Sep-19 23:32 059 2 gusting 12 27.2
2019-Sep-19 23:17 120 4 gusting 8 27.2
2019-Sep-19 23:01 053 6 gusting 12 27.8
2019-Sep-19 22:47 072 5 gusting 12 27.8
2019-Sep-19 22:31 121 2 gusting 10 28.3
2019-Sep-19 22:16 023 2 gusting 11 28.3
2019-Sep-19 22:01 055 5 gusting 13 28.3
2019-Sep-19 21:46 123 4 gusting 14 28.9
2019-Sep-19 21:31 041 4 gusting 10 28.9
2019-Sep-19 21:17 079 3 gusting 13 28.3
2019-Sep-19 21:01 030 6 gusting 19 28.3
2019-Sep-19 20:46 081 5 gusting 13 28.3
2019-Sep-19 20:31 063 4 gusting 13 28.3
2019-Sep-19 20:16 051 8 gusting 18 28.3
2019-Sep-19 20:01 041 5 gusting 15 28.9
2019-Sep-19 19:46 051 5 gusting 13 28.3
2019-Sep-19 19:31 086 2 gusting 12 27.8
2019-Sep-19 19:16 060 4 gusting 10 26.1
2019-Sep-19 19:02 048 2 gusting 10 25.6
2019-Sep-19 18:46 056 3 gusting 12 24.4
2019-Sep-19 18:31 303 1 gusting 6 25.0
2019-Sep-19 18:16 302 1 gusting 5 25.6
2019-Sep-19 18:01 089 25.0
2019-Sep-19 17:46 040 7 gusting 14 25.0
2019-Sep-19 17:31 046 8 gusting 18 28.3
2019-Sep-19 17:16 127 3 gusting 11 29.4
2019-Sep-19 17:00 153 3 gusting 10 29.4
2019-Sep-19 16:45 065 6 gusting 13 29.4
2019-Sep-19 16:31 053 6 gusting 14 28.9
2019-Sep-19 16:16 036 4 gusting 13 28.9
2019-Sep-19 16:00 067 6 gusting 11 28.9
2019-Sep-19 15:46 045 5 gusting 13 29.4
2019-Sep-19 15:30 041 4 gusting 13 29.4
2019-Sep-19 15:16 123 3 gusting 11 28.9
2019-Sep-19 15:01 044 2 gusting 10 29.4
2019-Sep-19 14:46 060 3 gusting 11 29.4
2019-Sep-19 14:30 060 4 gusting 13 28.9
2019-Sep-19 14:16 044 3 gusting 12 28.9
2019-Sep-19 14:00 062 1 gusting 12 28.9
2019-Sep-19 13:45 070 5 gusting 11 28.3
2019-Sep-19 13:30 056 5 gusting 13 27.8
2019-Sep-19 13:15 064 5 gusting 12 27.8
2019-Sep-19 13:00 056 2 gusting 6 27.8
2019-Sep-19 12:45 063 1 gusting 6 27.8
2019-Sep-19 12:31 035 4 gusting 11 27.2
2019-Sep-19 12:15 053 3 gusting 9 26.7
2019-Sep-19 12:00 065 3 gusting 6 26.1
2019-Sep-19 11:45 051 2 gusting 6 26.1
2019-Sep-19 11:31 066 2 gusting 6 26.1
2019-Sep-19 11:15 032 26.1
2019-Sep-19 11:00 011 3 gusting 8 26.1
2019-Sep-19 10:45 356 2 gusting 6 26.1
2019-Sep-19 10:30 060 0 gusting 6 26.1
2019-Sep-19 10:15 068 2 gusting 6 26.1
2019-Sep-19 10:00 075 2 gusting 7 26.1
2019-Sep-19 09:45 058 1 gusting 6 26.1
2019-Sep-19 09:31 072 1 gusting 6 26.1
2019-Sep-19 09:15 084 0 gusting 9 26.1
2019-Sep-19 09:00 053 1 gusting 6 26.1
2019-Sep-19 08:45 088 2 gusting 6 26.1
2019-Sep-19 08:30 070 1 gusting 6 26.1
2019-Sep-19 08:15 066 2 gusting 8 26.1
2019-Sep-19 08:00 114 1 gusting 10 26.7
2019-Sep-19 07:47 008 4 gusting 13 26.1
2019-Sep-19 07:31 041 3 gusting 9 26.1
2019-Sep-19 07:17 066 2 gusting 8 26.7
2019-Sep-19 07:01 062 3 gusting 10 26.7
2019-Sep-19 06:47 097 2 gusting 15 26.7
2019-Sep-19 06:31 054 2 gusting 8 26.7
2019-Sep-19 06:16 066 1 gusting 7 26.7
2019-Sep-19 06:01 058 3 gusting 12 26.1
2019-Sep-19 05:46 058 0 gusting 8 26.1
2019-Sep-19 05:31 042 26.1
2019-Sep-19 05:16 047 2 gusting 5 26.1
2019-Sep-19 05:01 059 26.1
2019-Sep-19 04:46 066 2 gusting 5 26.7
2019-Sep-19 04:31 043 3 gusting 7 27.2
2019-Sep-19 04:17 050 2 gusting 7 27.2
2019-Sep-19 04:01 034 3 gusting 6 27.2
2019-Sep-19 03:45 056 1 gusting 8 27.8
2019-Sep-19 03:30 034 0 gusting 7 27.8
2019-Sep-19 03:15 053 4 gusting 8 27.8
2019-Sep-19 03:01 055 3 gusting 10 27.8
2019-Sep-19 02:45 065 4 gusting 6 27.8
2019-Sep-19 02:30 060 3 gusting 7 28.3
2019-Sep-19 02:16 049 1 gusting 8 28.3
2019-Sep-19 02:01 045 3 gusting 10 28.3
2019-Sep-19 01:46 062 1 gusting 9 28.3
2019-Sep-19 01:30 018 4 gusting 8 28.3
2019-Sep-19 01:16 128 4 gusting 9 28.3
2019-Sep-19 01:01 044 3 gusting 6 28.3
2019-Sep-19 00:45 039 2 gusting 10 28.3
2019-Sep-19 00:30 041 1 gusting 8 28.3
2019-Sep-19 00:15 102 5 gusting 13 28.3
2019-Sep-19 00:01 039 3 gusting 8 28.3
2019-Sep-18 23:45 092 3 gusting 10 28.9
2019-Sep-18 23:30 063 4 gusting 8 28.9
2019-Sep-18 23:16 053 1 gusting 8 28.9
2019-Sep-18 23:00 040 4 gusting 10 29.4
2019-Sep-18 22:45 049 3 gusting 13 29.4
2019-Sep-18 22:30 089 3 gusting 9 30.0
2019-Sep-18 22:15 082 1 gusting 12 30.0
2019-Sep-18 22:00 070 5 gusting 9 30.6
2019-Sep-18 21:45 057 1 gusting 8 30.6
2019-Sep-18 21:30 118 2 gusting 9 30.6
2019-Sep-18 21:15 041 2 gusting 10 30.6
2019-Sep-18 21:00 072 5 gusting 13 31.1
2019-Sep-18 20:45 056 2 gusting 11 31.1
2019-Sep-18 20:30 082 3 gusting 15 31.7
2019-Sep-18 20:15 072 2 gusting 10 31.7
2019-Sep-18 20:00 063 3 gusting 11 31.7
2019-Sep-18 19:45 072 3 gusting 12 31.7
2019-Sep-18 19:30 068 5 gusting 14 31.7
2019-Sep-18 19:15 082 3 gusting 10 31.7
2019-Sep-18 19:00 112 3 gusting 10 31.7
2019-Sep-18 18:45 107 5 gusting 13 31.7
2019-Sep-18 18:30 057 4 gusting 13 31.7
2019-Sep-18 18:15 049 2 gusting 10 31.7
2019-Sep-18 18:00 053 2 gusting 12 31.7
2019-Sep-18 17:45 056 0 gusting 13 32.2
2019-Sep-18 17:30 065 4 gusting 13 31.7
2019-Sep-18 17:15 028 4 gusting 10 31.7
2019-Sep-18 17:00 064 2 gusting 13 31.7
2019-Sep-18 16:45 061 5 gusting 13 31.7
2019-Sep-18 16:17 032 3 gusting 11 31.7
2019-Sep-18 16:02 037 3 gusting 9 32.2
2019-Sep-18 15:47 054 4 gusting 10 31.7
2019-Sep-18 15:32 086 3 gusting 12 31.7
2019-Sep-18 15:16 037 3 gusting 12 31.7
2019-Sep-18 15:01 032 3 gusting 8 31.7
2019-Sep-18 14:46 037 4 gusting 9 31.1
2019-Sep-18 14:31 049 1 gusting 8 30.6
2019-Sep-18 14:16 060 0 gusting 6 30.6
2019-Sep-18 14:01 056 1 gusting 6 30.0